DW8454 Weather Reports


Display with metric or nautical units.
time (UTC)temp
F
wind
direction
speed
MPH
gust
MPH
rain 1hr
in
rain 24hr
in
rain mn
in
humidity
%
barometer
mb
20240520143620 85 310 1.0 6.0 0.00 0.00 0.00 49 1012.8
20240520142645 85 215 1.0 6.0 0.00 0.00 0.00 52 1012.8
20240520141639 84 201 1.0 4.0 0.00 0.00 0.00 52 1012.8
20240520135554 82 178 1.0 4.0 0.00 0.00 0.00 55 1012.8
20240520134523 81 162 2.0 5.0 0.00 0.00 0.00 56 1012.8
20240520132449 78 200 2.0 8.0 0.00 0.00 0.00 58 1013.0
20240520131459 78 217 2.0 5.0 0.00 0.00 0.00 60 1013.2
20240520130521 77 194 2.0 6.0 0.00 0.00 0.00 61 1013.2
20240520125458 76 173 2.0 6.0 0.00 0.00 0.00 62 1013.2
20240520124438 75 202 2.0 6.0 0.00 0.00 0.00 63 1013.2
20240520123443 74 168 2.0 5.0 0.00 0.00 0.00 64 1013.2
20240520122440 73 209 1.0 5.0 0.00 0.00 0.00 66 1013.2
20240520121502 72 206 1.0 5.0 0.00 0.00 0.00 67 1013.3
20240520120519 71 205 1.0 3.0 0.00 0.00 0.00 69 1013.2
20240520115508 70 208 0.0 0.0 0.00 0.00 0.00 70 1013.2
20240520114520 70 202 0.0 0.0 0.00 0.00 0.00 71 1013.2
20240520113455 69 201 0.0 0.0 0.00 0.00 0.00 72 1013.2
20240520111318 68 184 1.0 3.0 0.00 0.00 0.00 72 1013.1
20240520110326 68 194 0.0 2.0 0.00 0.00 0.00 72 1012.9
20240520104123 67 209 0.0 0.0 0.00 0.00 0.00 73 1012.9
20240520103120 67 209 0.0 0.0 0.00 0.00 0.00 73 1012.8
20240520100919 68 209 0.0 0.0 0.00 0.00 0.00 72 1012.7
20240520094813 67 209 0.0 0.0 0.00 0.00 0.00 73 1012.6
20240520093816 67 209 0.0 0.0 0.00 0.00 0.00 73 1012.6
20240520092811 68 209 0.0 3.0 0.00 0.00 0.00 73 1012.7
20240520091758 68 209 0.0 1.0 0.00 0.00 0.00 73 1012.7
20240520085659 68 209 0.0 0.0 0.00 0.00 0.00 70 1012.3
20240520084626 69 209 0.0 0.0 0.00 0.00 0.00 69 1012.3
20240520083605 69 209 0.0 0.0 0.00 0.00 0.00 68 1012.2
20240520082534 69 209 0.0 0.0 0.00 0.00 0.00 68 1012.1
20240520081529 69 209 0.0 0.0 0.00 0.00 0.00 68 1012.0
20240520080511 70 209 0.0 0.0 0.00 0.00 0.00 68 1012.0
20240520075452 70 209 0.0 1.0 0.00 0.00 0.00 67 1012.1
20240520074500 70 180 0.0 2.0 0.00 0.00 0.00 67 1012.0
20240520073514 70 210 1.0 3.0 0.00 0.00 0.00 67 1011.8
20240520072530 70 206 1.0 3.0 0.00 0.00 0.00 66 1011.8
20240520071513 71 217 0.0 4.0 0.00 0.00 0.00 66 1011.7
20240520070440 71 198 1.0 4.0 0.00 0.00 0.00 65 1011.7
20240520065432 71 188 0.0 1.0 0.00 0.00 0.00 65 1011.8
20240520064408 72 202 0.0 0.0 0.00 0.00 0.00 64 1011.8
20240520062255 73 104 0.0 2.0 0.00 0.00 0.00 62 1012.0
20240520061222 73 113 0.0 4.0 0.00 0.00 0.00 62 1012.2
20240520060204 73 101 0.0 3.0 0.00 0.00 0.00 62 1012.3
20240520055205 73 103 0.0 1.0 0.00 0.00 0.00 63 1012.3
20240520054221 73 98 0.0 0.0 0.00 0.00 0.00 63 1012.5
20240520052049 73 106 0.0 2.0 0.00 0.00 0.00 62 1012.8
20240520051047 73 74 0.0 0.0 0.00 0.00 0.00 62 1012.9
20240520050020 73 90 0.0 2.0 0.00 0.00 0.00 62 1012.9
20240520045008 73 93 0.0 0.0 0.00 0.00 0.00 62 1012.9
20240520043959 73 202 0.0 0.0 0.00 0.00 0.00 63 1013.0
20240520042938 73 202 0.0 0.0 0.00 0.00 0.00 63 1013.2
20240520041938 74 202 0.0 0.0 0.00 0.00 0.00 62 1013.1
20240520041001 74 202 0.0 0.0 0.00 0.00 0.00 62 1013.1
20240520040003 73 88 0.0 0.0 0.00 0.00 0.00 63 1013.1
20240520035010 72 88 0.0 0.0 0.00 0.00 0.00 65 1013.1
20240520033938 72 88 0.0 0.0 0.00 0.00 0.00 67 1013.0
20240520032916 72 88 0.0 0.0 0.00 0.00 0.00 67 1013.0
20240520031926 73 88 0.0 0.0 0.00 0.00 0.00 66 1013.0
20240520030905 73 88 0.0 0.0 0.00 0.00 0.00 62 1012.9
20240520025855 73 88 0.0 0.0 0.00 0.00 0.00 60 1012.9
20240520024910 74 88 0.0 0.0 0.00 0.00 0.00 59 1012.7
20240520023859 75 88 0.0 0.0 0.00 0.00 0.00 57 1012.7
20240520022920 75 88 0.0 0.0 0.00 0.00 0.00 56 1012.5
20240520021909 75 102 0.0 1.0 0.00 0.00 0.00 56 1012.3
20240520020924 75 101 0.0 0.0 0.00 0.00 0.00 56 1012.2
20240520014809 74 107 0.0 0.0 0.00 0.00 0.00 58 1012.1
20240520012707 74 91 0.0 0.0 0.00 0.00 0.00 61 1012.2
20240520010556 74 87 0.0 0.0 0.00 0.00 0.00 60 1012.3
20240520005542 75 87 0.0 0.0 0.00 0.00 0.00 59 1012.4
20240520004544 75 87 0.0 0.0 0.00 0.00 0.00 59 1012.5
20240520001258 78 50 0.0 0.0 0.00 0.00 0.00 55 1012.7
20240520000254 79 50 0.0 0.0 0.00 0.00 0.00 53 1012.7
20240519235303 81 50 0.0 0.0 0.00 0.00 0.00 52 1012.6
20240519234245 82 50 0.0 0.0 0.00 0.00 0.00 50 1012.5
20240519233217 83 50 0.0 0.0 0.00 0.00 0.00 51 1012.3
20240519232223 83 50 0.0 0.0 0.00 0.00 0.00 50 1012.3
20240519231205 83 50 0.0 0.0 0.00 0.00 0.00 49 1012.3
20240519230148 83 50 0.0 0.0 0.00 0.00 0.00 49 1012.2
20240519225145 83 103 0.0 0.0 0.00 0.00 0.00 48 1012.0
20240519224205 84 119 0.0 0.0 0.00 0.00 0.00 48 1011.9
20240519223146 84 136 0.0 0.0 0.00 0.00 0.00 44 1011.8
20240519222202 84 148 0.0 0.0 0.00 0.00 0.00 44 1011.9
20240519214937 84 5 0.0 0.0 0.00 0.00 0.00 45 1012.3
20240519213929 84 345 0.0 2.0 0.00 0.00 0.00 43 1012.3
20240519211823 85 309 0.0 0.0 0.00 0.00 0.00 47 1012.4
20240519205629 86 337 0.0 0.0 0.00 0.00 0.00 45 1012.6
20240519204636 86 255 0.0 1.0 0.00 0.00 0.00 44 1012.7
20240519203621 87 290 0.0 2.0 0.00 0.00 0.00 44 1012.6
20240519201503 87 304 0.0 0.0 0.00 0.00 0.00 45 1012.5
20240519200458 87 278 0.0 4.0 0.00 0.00 0.00 44 1012.5
20240519194356 87 319 0.0 0.0 0.00 0.00 0.00 47 1012.8
20240519193401 87 309 0.0 4.0 0.00 0.00 0.00 46 1013.0
20240519191226 86 298 1.0 5.0 0.00 0.00 0.00 47 1013.3
20240519190156 86 323 0.0 3.0 0.00 0.00 0.00 48 1013.4
20240519185213 86 297 1.0 4.0 0.00 0.00 0.00 47 1013.5
20240519183056 86 262 1.0 6.0 0.00 0.00 0.00 48 1013.7
20240519182118 85 306 2.0 5.0 0.00 0.00 0.00 47 1013.8
20240519181134 86 293 0.0 3.0 0.00 0.00 0.00 48 1013.9
20240519180107 86 328 0.0 4.0 0.00 0.00 0.00 47 1014.1
20240519175126 86 309 2.0 3.0 0.00 0.00 0.00 48 1014.0
20240519174106 86 306 1.0 3.0 0.00 0.00 0.00 50 1014.0
20240519173058 86 284 1.0 5.0 0.00 0.00 0.00 49 1013.9
20240519170852 86 299 0.0 4.0 0.00 0.00 0.00 51 1013.8
20240519165903 85 289 1.0 5.0 0.00 0.00 0.00 50 1014.0
20240519164828 85 286 0.0 4.0 0.00 0.00 0.00 48 1013.9
20240519163827 85 351 0.0 4.0 0.00 0.00 0.00 50 1014.0
20240519162802 85 340 0.0 3.0 0.00 0.00 0.00 53 1014.1
20240519161806 85 260 0.0 1.0 0.00 0.00 0.00 49 1014.0
20240519160802 85 275 0.0 2.0 0.00 0.00 0.00 50 1014.0
20240519155818 84 305 0.0 0.0 0.00 0.00 0.00 52 1014.1
20240519153721 83 296 0.0 0.0 0.00 0.00 0.00 49 1014.2
20240519152744 83 265 0.0 1.0 0.00 0.00 0.00 48 1014.2
20240519151733 83 156 0.0 0.0 0.00 0.00 0.00 50 1014.1
20240519145612 81 294 0.0 0.0 0.00 0.00 0.00 53 1014.1